Flag for U.S.A. Weather past 2 weeks in Cleveland, Tennessee, U.S.A.

Now
68 °F

Light rain. Broken clouds.


Feels Like: 68 °F
Forecast: 63 / 72 °F
Wind: 9 mph from South

Location: Lovell Field

Current Time: Apr 19, 2015 at 12:37:22 PM

Latest Report: Apr 19, 2015 at 11:53 AM


Visibility: 7 mi

Pressure: 29.72 "Hg

Humidity: 84%

Dew point: 63 °F

Location of ClevelandLocation

Historic Weather in Cleveland — Graph

°F

Cleveland temperature yesterday

Maximum temperature yesterday: 77 °F (at 2:53 PM)
Minimum temperature yesterday: 59 °F (at 6:53 AM)
Average temperature yesterday: 67 °F

Past Weeks' High & Low Weather Summary

 TemperatureHumidityPressure
High85 °F (Apr 9, 1:53 PM)100% (Apr 18, 6:53 AM)30.32 "Hg (Apr 18, 6:53 AM)
Low38 °F (Apr 5, 6:53 AM)21% (Apr 4, 4:53 PM)29.72 "Hg (Apr 19, 10:53 AM)
Average65 °F73%30.09 "Hg
* Reported Apr 4 10:53 AM — Apr 19 10:53 AM, Cleveland, Weather by CustomWeather, © 2015

Note: Actual official high and low records may vary slightly from our data, if they occured in-between our weather recording intervals... More about our weather records

Advertising

Cleveland weather history for previous 24 hours

 ConditionsComfort  
Time TempWeatherWind HumidityBarometerVisibility
10:53 AM
Sun, Apr 19
68 °FHeavy rain. Fog.6 mph93%29.72 "Hg2 mi
9:53 AM68 °FLight rain. Fog.5 mph93%29.72 "Hg3 mi
8:53 AM67 °FHeavy rain. Fog.8 mph93%29.74 "Hg1 mi
7:53 AM67 °FLight rain. Fog.13 mph93%29.74 "Hg2 mi
7:01 AM67 °FRain. Fog.13 mph90%29.78 "Hg2 mi
5:53 AM66 °FLight rain. Fog.5 mph93%29.78 "Hg5 mi
4:53 AM66 °FLight rain. Overcast.3 mph93%29.80 "Hg9 mi
3:53 AM67 °FLight rain. Overcast.5 mph87%29.82 "Hg10 mi
2:53 AM67 °FMostly cloudy.3 mph90%29.84 "Hg10 mi
1:53 AM67 °FPassing clouds.3 mph90%29.86 "Hg10 mi
12:53 AM67 °FOvercast.5 mph87%29.89 "Hg10 mi
11:53 PM
Sat, Apr 18
68 °FOvercast.3 mph84%29.91 "Hg10 mi
10:53 PM68 °FOvercast.5 mph84%29.91 "Hg10 mi
9:53 PM70 °FPartly cloudy.6 mph81%29.92 "Hg10 mi
8:53 PM72 °FPartly sunny.No wind73%29.91 "Hg10 mi
7:53 PM73 °FBroken clouds.No wind69%29.90 "Hg10 mi
6:53 PM74 °FBroken clouds.5 mph64%29.88 "Hg10 mi
5:53 PM74 °FBroken clouds.7 mph64%29.88 "Hg10 mi
4:53 PM77 °FBroken clouds.3 mph60%29.90 "Hg10 mi
3:53 PM76 °FBroken clouds.3 mph62%29.90 "Hg10 mi
2:53 PM77 °FBroken clouds.6 mph62%29.92 "Hg10 mi
1:53 PM76 °FBroken clouds.5 mph64%29.96 "Hg10 mi
12:53 PM74 °FBroken clouds.No wind67%29.97 "Hg10 mi
Weather by CustomWeather, © 2015

See weather overviewHow to use our weather pages